Flag for U.S.A. Weather past 2 weeks in Denver, Colorado, U.S.A.

Now
46 °F

Passing clouds.


Feels Like: 43 °F
Forecast: 41 / 76 °F
Wind: 7 mph from South

Location: Buckley Air Force Base


UV Index: 5 (Moderate)

Visibility: 10 mi


Pressure: 29.88 "Hg

Humidity: 46%

Dew point: 27 °F

Location of DenverLocation

Historic Weather in Denver

°F

Denver temperature yesterday

Maximum temperature yesterday: 63 °F (at 3:55 PM)
Minimum temperature yesterday: 32 °F (at 1:55 AM)
Average temperature yesterday: 48 °F

Past Weeks' High & Low Weather Summary

 TemperatureHumidityPressure
High75 °F (Apr 11, 4:55 PM)100% (Apr 3, 3:55 AM)30.42 "Hg (Apr 3, 3:55 AM)
Low14 °F (Apr 14, 5:55 AM)11% (Apr 11, 4:55 PM)29.51 "Hg (Apr 12, 5:55 PM)
Average45 °F52%29.92 "Hg
* Reported Apr 3 3:55 AM — Apr 18 3:55 AM, Denver, Weather by CustomWeather, © 2014

Note: Actual official high and low records may vary slightly from our data, if they occured in-between our weather recording intervals... More about our weather records

Advertising

Historic Weather Conditions — Data for Previous 24 hours

 ConditionsComfort  
Time TempWeatherWind HumidityBarometerVisibility
3:55 AM
Apr 18
45 °FPassing clouds.10 mph53%29.88 "Hg10 mi
2:55 AM45 °FPassing clouds.13 mph57%29.88 "Hg10 mi
1:55 AM45 °FPassing clouds.15 mph61%29.90 "Hg10 mi
12:55 AM46 °FPassing clouds.14 mph57%29.90 "Hg10 mi
11:55 PM
Apr 17
48 °FPassing clouds.24 mph54%29.88 "Hg10 mi
10:55 PM48 °FPassing clouds.29 mph54%29.88 "Hg10 mi
9:55 PM50 °FPassing clouds.28 mph50%29.90 "Hg25 mi
8:55 PM52 °FPassing clouds.23 mph47%29.92 "Hg25 mi
7:55 PM54 °FPartly sunny.17 mph44%29.91 "Hg70 mi
6:55 PM57 °FPartly sunny.21 mph41%29.91 "Hg70 mi
5:55 PM61 °FScattered clouds.12 mph34%29.91 "Hg70 mi
4:55 PM61 °FScattered clouds.7 mph29%29.92 "Hg70 mi
3:55 PM63 °FScattered clouds.13 mph24%29.91 "Hg70 mi
2:55 PM61 °FScattered clouds.8 mph27%29.94 "Hg70 mi
1:55 PM59 °FBroken clouds.8 mph23%29.97 "Hg70 mi
12:55 PM57 °FPartly sunny.6 mph21%29.98 "Hg70 mi
11:55 AM57 °FScattered clouds.6 mph23%29.99 "Hg70 mi
10:55 AM55 °FScattered clouds.10 mph26%30.00 "Hg70 mi
9:55 AM52 °FScattered clouds.15 mph35%30.02 "Hg70 mi
8:55 AM45 °FScattered clouds.9 mph57%30.04 "Hg70 mi
7:55 AM41 °FPassing clouds.16 mph61%30.03 "Hg70 mi
6:55 AM36 °FPassing clouds.17 mph81%30.03 "Hg70 mi
5:55 AM36 °FPassing clouds.20 mph81%29.99 "Hg25 mi
Weather by CustomWeather, © 2014

See weather overview